Starlink 3147

operational
NORAD ID: 49410 Int'l Des: 2021-104 Owner: SPXS Country: US Constellation: starlink
LEOCIRCULAR

About Starlink 3147

Description loading...

Live Position

Loading 3D Globe...

Upcoming Passes

Altitude History

Altitude vs Time

uPlot chart will show altitude changes over time

Two-Line Element Set

1 49410U 21104C 25303.82345625 .00001635 00000-0 12080-3 0 9993
2 49410 53.2155 92.1208 0001304 89.5986 270.5155 15.08845587219026
Epoch: Oct 30, 2025 • Age: 10 hours

Current Status

Altitude 539.6 km
Velocity 7.60 km/s
Sub-Earth Point 16.22°N, 127.83°E
Launch Date Nov 13, 2021
Age 3.9 years
Type internet

Technical Details

Classification Payload
Mass 290.00 kg
Dry Mass 270.00 kg
Total Mass 290.00 kg
Length 0.20 m
Diameter 2.80 m
Span 9.00 m
Shape Box + pan
Manufacturer SPXS
Bus Type Starlink
Phase Status In Orbit
Owner/State SPXS/US

Large Constellations

Loading constellations...